Terminal Aerodrome Forecast
Issued by NWS

Current Version | Previous Version | Text Only | Print | Product List | Glossary On
Versions: 1 2 3 4 5 6 7 8 9 10 11 12 13 14
000 FTUS41 KBTV 282320 TAFMPV TAF KMPV 282320Z 2900/2924 32007KT P6SM BKN028 OVC035 FM290300 VRB03KT P6SM SCT028 FM290600 00000KT 3SM BR FEW120 TEMPO 2906/2910 1SM BR OVC003 FM291300 VRB02KT P6SM SKC FM291800 16005KT P6SM FEW050=

USA.gov is the U.S. government's official web portal to all federal, state and local government web resources and services.